"read_dt","SO2 (ppb)","flags","PMT voltage (V)","lamp voltage (V)","lamp intensity (Hz)","internal temp (C)","react chamber temp (C)","sample flow (l/min)","pres (mmHg)","SO2 bkg (ppb)","SO2 coefficient"
2014-04-18 00:00:00,3125E-2,5C000000,-0724,1026,10218,023.1,045.1,0.645,761.9,01.16,0.508
2014-04-18 00:01:00,3092E-2,5C000000,-0724,1025,10340,023.2,045.1,0.645,761.9,01.16,0.508
2014-04-18 00:02:00,3055E-2,5C000000,-0724,1025,10192,023.2,045.1,0.636,761.9,01.16,0.508
2014-04-18 00:03:00,3101E-2,5C000000,-0724,1026,10308,023.2,045.1,0.634,761.8,01.16,0.508
2014-04-18 00:04:00,3033E-2,5C000000,-0724,1025,10240,023.2,045.1,0.632,761.8,01.16,0.508
2014-04-18 00:05:00,3042E-2,5C000000,-0724,1024,10338,023.2,045.2,0.630,761.8,01.16,0.508
2014-04-18 00:06:00,3162E-2,5C000000,-0724,1025,10399,023.2,045.2,0.629,761.9,01.16,0.508
2014-04-18 00:07:00,3110E-2,5C000000,-0724,1024,10104,023.2,045.1,0.621,761.8,01.16,0.508
2014-04-18 00:08:00,3064E-2,5C000000,-0724,1024,10261,023.2,045.1,0.613,761.7,01.16,0.508
2014-04-18 00:09:00,3052E-2,5C000000,-0724,1024,10368,023.2,045.1,0.617,761.7,01.16,0.508
2014-04-18 00:10:00,3109E-2,5C000000,-0724,1025,10152,023.2,045.1,0.623,761.9,01.16,0.508
2014-04-18 00:11:00,3107E-2,5C000000,-0724,1024,10253,023.2,045.1,0.619,761.9,01.16,0.508
2014-04-18 00:12:00,3080E-2,5C000000,-0724,1024,10163,023.2,045.1,0.615,761.8,01.16,0.508
2014-04-18 00:13:00,3106E-2,5C000000,-0724,1024,10334,023.2,045.2,0.620,761.8,01.16,0.508
2014-04-18 00:14:00,3095E-2,5C000000,-0724,1024,10296,023.2,045.2,0.621,761.9,01.16,0.508
2014-04-18 00:15:00,3095E-2,5C000000,-0724,1025,10436,023.2,045.2,0.614,761.8,01.16,0.508
2014-04-18 00:16:00,3137E-2,5C000000,-0724,1023,10301,023.2,045.2,0.617,761.8,01.16,0.508
2014-04-18 00:17:00,3111E-2,5C000000,-0724,1024,10346,023.3,045.2,0.620,761.9,01.16,0.508
2014-04-18 00:18:00,3096E-2,5C000000,-0724,1024,10295,023.3,045.2,0.613,761.8,01.16,0.508
2014-04-18 00:19:00,3138E-2,5C000000,-0724,1024,10272,023.3,045.1,0.606,761.8,01.16,0.508
2014-04-18 00:20:00,3131E-2,5C000000,-0724,1026,10387,023.3,045.1,0.611,761.9,01.16,0.508
2014-04-18 00:21:00,3128E-2,5C000000,-0724,1023,10245,023.3,045.2,0.612,761.9,01.16,0.508
2014-04-18 00:22:00,3131E-2,5C000000,-0724,1023,10083,023.3,045.2,0.605,761.8,01.16,0.508
2014-04-18 00:23:00,3146E-2,5C000000,-0724,1024,10104,023.3,045.1,0.603,761.8,01.16,0.508
2014-04-18 00:24:00,3161E-2,5C000000,-0724,1024,10220,023.3,045.1,0.601,761.8,01.16,0.508
2014-04-18 00:25:00,3139E-2,5C000000,-0724,1024,10236,023.3,045.1,0.604,761.8,01.16,0.508
2014-04-18 00:26:00,3135E-2,5C000000,-0724,1024,10392,023.3,045.1,0.602,761.8,01.16,0.508
2014-04-18 00:27:00,3087E-2,5C000000,-0724,1023,10228,023.3,045.2,0.602,761.8,01.16,0.508
2014-04-18 00:28:00,3097E-2,5C000000,-0724,1023,10338,023.3,045.1,0.600,761.8,01.16,0.508
2014-04-18 00:29:00,3162E-2,5C000000,-0724,1024,10317,023.3,045.1,0.597,761.8,01.16,0.508
2014-04-18 00:30:00,3114E-2,5C000000,-0724,1023,10257,023.3,045.2,0.601,761.9,01.16,0.508
2014-04-18 00:31:00,3123E-2,5C000000,-0724,1023,10136,023.3,045.2,0.600,761.9,01.16,0.508
2014-04-18 00:32:00,3087E-2,5C000000,-0724,1024,10329,023.4,045.1,0.592,761.8,01.16,0.508
2014-04-18 00:33:00,3105E-2,5C000000,-0724,1023,10144,023.4,045.1,0.587,761.8,01.16,0.508
2014-04-18 00:34:00,3103E-2,5C000000,-0724,1024,10065,023.4,045.2,0.596,761.9,01.16,0.508
2014-04-18 00:35:00,3107E-2,5C000000,-0724,1023,10281,023.4,045.2,0.599,761.9,01.16,0.508
2014-04-18 00:36:00,3128E-2,5C000000,-0724,1025,10295,023.4,045.1,0.590,761.9,01.16,0.508
2014-04-18 00:37:00,3073E-2,5C000000,-0724,1024,10271,023.4,045.2,0.591,761.9,01.16,0.508
2014-04-18 00:38:00,3108E-2,5C000000,-0724,1023,10218,023.4,045.2,0.590,761.9,01.16,0.508
2014-04-18 00:39:00,3099E-2,5C000000,-0724,1025,10126,023.4,045.2,0.592,761.9,01.16,0.508
2014-04-18 00:40:00,3028E-2,5C000000,-0724,1024,10254,023.4,045.2,0.596,762.0,01.16,0.508
2014-04-18 00:41:00,3086E-2,5C000000,-0724,1024,10265,023.4,045.2,0.594,762.0,01.16,0.508
2014-04-18 00:42:00,3068E-2,5C000000,-0724,1025,10266,023.4,045.2,0.593,762.0,01.16,0.508
2014-04-18 00:43:00,3041E-2,5C000000,-0724,1023,10197,023.4,045.2,0.598,762.0,01.16,0.508
2014-04-18 00:44:00,3081E-2,5C000000,-0724,1024,10332,023.4,045.2,0.597,762.0,01.16,0.508
2014-04-18 00:45:00,3066E-2,5C000000,-0724,1024,10212,023.5,045.2,0.592,762.0,01.16,0.508
2014-04-18 00:46:00,3079E-2,5C000000,-0724,1024,10248,023.5,045.2,0.595,762.1,01.16,0.508
2014-04-18 00:47:00,3080E-2,5C000000,-0724,1025,10322,023.5,045.2,0.594,762.1,01.16,0.508
2014-04-18 00:48:00,3077E-2,5C000000,-0724,1025,10336,023.5,045.2,0.595,762.1,01.16,0.508
2014-04-18 00:49:00,3055E-2,5C000000,-0724,1025,10265,023.5,045.2,0.596,762.2,01.16,0.508
2014-04-18 00:50:00,3079E-2,5C000000,-0724,1025,10381,023.5,045.2,0.590,762.1,01.16,0.508
2014-04-18 00:51:00,3102E-2,5C000000,-0724,1024,10410,023.5,045.2,0.588,762.1,01.16,0.508
2014-04-18 00:52:00,3084E-2,5C000000,-0724,1025,10287,023.5,045.2,0.593,762.2,01.16,0.508
2014-04-18 00:53:00,3079E-2,5C000000,-0724,1025,10319,023.5,045.2,0.588,762.2,01.16,0.508
2014-04-18 00:54:00,3083E-2,5C000010,-0724,1026,9944,023.5,045.1,0.589,762.2,01.16,0.508
2014-04-18 00:55:00,3106E-2,5C000000,-0724,1025,10178,023.5,045.2,0.593,762.2,01.16,0.508
2014-04-18 00:56:00,3085E-2,5C000000,-0724,1025,10377,023.5,045.2,0.590,762.2,01.16,0.508
2014-04-18 00:57:00,3075E-2,5C000000,-0724,1026,10306,023.5,045.2,0.589,762.2,01.16,0.508
2014-04-18 00:58:00,3082E-2,5C000000,-0724,1025,10363,023.5,045.2,0.589,762.2,01.16,0.508
2014-04-18 00:59:00,3115E-2,5C000000,-0724,1026,10246,023.5,045.1,0.584,762.1,01.16,0.508
2014-04-18 01:00:00,3080E-2,5C000000,-0724,1025,10321,023.5,045.2,0.595,762.1,01.16,0.508
2014-04-18 01:01:00,3022E-2,5C000000,-0724,1026,10282,023.5,045.2,0.602,762.3,01.16,0.508
2014-04-18 01:02:00,3056E-2,5C000000,-0724,1025,10329,023.6,045.2,0.599,762.2,01.16,0.508
2014-04-18 01:03:00,3085E-2,5C000000,-0724,1026,10339,023.6,045.2,0.593,762.2,01.16,0.508
2014-04-18 01:04:00,3066E-2,5C000000,-0724,1026,10246,023.6,045.2,0.607,762.2,01.16,0.508
2014-04-18 01:05:00,3108E-2,5C000000,-0724,1025,10289,023.6,045.2,0.605,762.1,01.16,0.508
2014-04-18 01:06:00,3176E-2,5C000000,-0724,1025,10105,023.6,045.2,0.606,762.1,01.16,0.508
2014-04-18 01:07:00,3093E-2,5C000000,-0724,1026,10323,023.6,045.2,0.611,762.2,01.16,0.508
2014-04-18 01:08:00,3107E-2,5C000000,-0724,1025,10207,023.6,045.2,0.605,762.1,01.16,0.508
2014-04-18 01:09:00,3085E-2,5C000000,-0724,1025,10310,023.6,045.2,0.605,762.1,01.16,0.508
2014-04-18 01:10:00,3083E-2,5C000000,-0724,1024,10303,023.6,045.2,0.603,762.1,01.16,0.508
2014-04-18 01:11:00,3118E-2,5C000000,-0724,1024,10284,023.6,045.2,0.601,762.0,01.16,0.508
2014-04-18 01:12:00,3136E-2,5C000000,-0724,1024,10318,023.6,045.2,0.604,762.0,01.16,0.508
2014-04-18 01:13:00,3030E-2,5C000010,-0724,1024,9995,023.6,045.2,0.604,762.0,01.16,0.508
2014-04-18 01:14:00,3147E-2,5C000000,-0724,1025,10182,023.6,045.2,0.604,762.0,01.16,0.508
2014-04-18 01:15:00,3112E-2,5C000000,-0724,1025,10334,023.6,045.1,0.608,762.1,01.16,0.508
2014-04-18 01:16:00,3130E-2,5C000000,-0724,1027,10338,023.6,045.2,0.605,762.1,01.16,0.508
2014-04-18 01:17:00,3102E-2,5C000000,-0724,1025,10250,023.7,045.2,0.602,762.1,01.16,0.508
2014-04-18 01:18:00,3116E-2,5C000000,-0724,1025,10293,023.7,045.2,0.602,762.0,01.16,0.508
2014-04-18 01:19:00,3133E-2,5C000000,-0724,1024,10129,023.7,045.2,0.600,762.0,01.16,0.508
2014-04-18 01:20:00,3080E-2,5C000000,-0724,1026,10248,023.7,045.2,0.599,762.1,01.16,0.508
2014-04-18 01:21:00,3125E-2,5C000000,-0724,1026,10248,023.7,045.2,0.598,762.0,01.16,0.508
2014-04-18 01:22:00,3127E-2,5C000000,-0724,1025,10419,023.7,045.1,0.605,762.1,01.16,0.508
2014-04-18 01:23:00,3160E-2,5C000000,-0724,1024,10302,023.7,045.1,0.609,762.2,01.16,0.508
2014-04-18 01:24:00,3163E-2,5C000000,-0724,1025,10167,023.7,045.2,0.605,762.1,01.16,0.508
2014-04-18 01:25:00,3114E-2,5C000000,-0724,1025,10082,023.7,045.2,0.604,762.2,01.16,0.508
2014-04-18 01:26:00,2928E-2,5C000000,-0724,1023,10277,023.7,045.2,0.598,762.1,01.16,0.508
2014-04-18 01:27:00,2815E-2,5C000000,-0724,1030,10094,023.7,045.2,0.601,762.1,01.16,0.508
2014-04-18 01:28:00,2887E-2,5C000000,-0724,1032,9999,023.7,045.2,0.606,762.2,01.16,0.508
2014-04-18 01:29:00,2860E-2,5C000000,-0724,1033,10041,023.7,045.2,0.603,762.2,01.16,0.508
2014-04-18 01:30:00,2832E-2,5C000000,-0724,1034,10024,023.7,045.1,0.596,762.1,01.16,0.508
2014-04-18 01:31:00,2849E-2,5C000000,-0724,1033,10270,023.7,045.2,0.602,762.2,01.16,0.508
2014-04-18 01:32:00,2895E-2,5C000000,-0724,1033,10196,023.7,045.2,0.600,762.2,01.16,0.508
2014-04-18 01:33:00,2861E-2,5C000000,-0724,1034,10197,023.7,045.2,0.595,762.2,01.16,0.508
2014-04-18 01:34:00,2888E-2,5C000000,-0724,1034,10125,023.7,045.2,0.597,762.2,01.16,0.508
2014-04-18 01:35:00,2891E-2,5C000000,-0724,1034,10224,023.7,045.2,0.598,762.2,01.16,0.508
2014-04-18 01:36:00,2886E-2,5C000000,-0724,1035,10166,023.7,045.2,0.600,762.2,01.16,0.508
2014-04-18 01:37:00,2923E-2,5C000000,-0724,1034,10231,023.8,045.2,0.594,762.2,01.16,0.508
2014-04-18 01:38:00,2900E-2,5C000000,-0724,1035,10002,023.8,045.2,0.599,762.1,01.16,0.508
2014-04-18 01:39:00,2887E-2,5C000000,-0724,1033,10198,023.8,045.2,0.601,762.1,01.16,0.508
2014-04-18 01:40:00,2890E-2,5C000000,-0724,1033,10149,023.8,045.2,0.602,762.2,01.16,0.508
2014-04-18 01:41:00,2912E-2,5C000000,-0724,1035,10077,023.8,045.2,0.601,762.2,01.16,0.508
2014-04-18 01:42:00,2892E-2,5C000000,-0724,1034,10065,023.8,045.2,0.601,762.1,01.16,0.508
2014-04-18 01:43:00,2910E-2,5C000000,-0724,1034,10085,023.8,045.2,0.601,762.1,01.16,0.508
2014-04-18 01:44:00,2896E-2,5C000000,-0724,1033,10054,023.8,045.2,0.601,762.1,01.16,0.508
2014-04-18 01:45:00,2988E-2,5C000000,-0724,1033,9958,023.8,045.2,0.601,762.0,01.16,0.508
2014-04-18 01:46:00,2906E-2,5C000000,-0724,1033,10114,023.8,045.2,0.601,762.1,01.16,0.508
2014-04-18 01:47:00,2929E-2,5C000000,-0724,1034,10118,023.8,045.2,0.602,762.0,01.16,0.508
2014-04-18 01:48:00,2922E-2,5C000000,-0724,1032,10283,023.8,045.2,0.602,762.0,01.16,0.508
2014-04-18 01:49:00,2964E-2,5C000000,-0724,1032,10366,023.8,045.1,0.602,762.0,01.16,0.508
2014-04-18 01:50:00,2932E-2,5C000000,-0724,1033,10288,023.8,045.2,0.600,762.0,01.16,0.508
2014-04-18 01:51:00,2953E-2,5C000000,-0724,1031,10273,023.8,045.2,0.605,762.0,01.16,0.508
2014-04-18 01:52:00,2950E-2,5C000000,-0724,1032,10138,023.9,045.2,0.607,762.0,01.16,0.508
2014-04-18 01:53:00,2952E-2,5C000000,-0724,1032,10330,023.8,045.2,0.606,762.0,01.16,0.508
2014-04-18 01:54:00,2931E-2,5C000000,-0724,1033,10262,023.9,045.2,0.606,762.0,01.16,0.508
2014-04-18 01:55:00,2981E-2,5C000000,-0724,1031,10350,023.8,045.2,0.613,762.1,01.16,0.508
2014-04-18 01:56:00,2947E-2,5C000000,-0724,1032,10281,023.9,045.2,0.607,762.0,01.16,0.508
2014-04-18 01:57:00,3005E-2,5C000000,-0724,1031,10123,023.8,045.2,0.610,762.0,01.16,0.508
2014-04-18 01:58:00,2948E-2,5C000000,-0724,1031,10283,023.8,045.2,0.612,762.1,01.16,0.508
2014-04-18 01:59:00,2935E-2,5C000000,-0724,1022,10529,023.8,045.2,0.616,762.1,01.16,0.508
2014-04-18 02:00:00,2766E-2,5C000000,-0724,1023,10236,023.9,045.2,0.615,762.1,01.16,0.508
2014-04-18 02:01:00,2755E-2,5C000000,-0724,1027,10376,023.9,045.2,0.609,762.1,01.16,0.508
2014-04-18 02:02:00,2780E-2,5C000000,-0724,1028,10302,023.8,045.2,0.619,762.2,01.16,0.508
2014-04-18 02:03:00,2736E-2,5C000000,-0724,1026,9983,023.9,045.2,0.622,762.2,01.16,0.508
2014-04-18 02:04:00,2765E-2,5C000000,-0724,1029,10139,023.9,045.2,0.615,762.2,01.16,0.508
2014-04-18 02:05:00,2778E-2,5C000000,-0724,1029,10207,023.9,045.2,0.619,762.2,01.16,0.508
2014-04-18 02:06:00,2837E-2,5C000000,-0724,1029,10399,023.9,045.2,0.619,762.2,01.16,0.508
2014-04-18 02:07:00,2786E-2,5C000000,-0724,1030,10240,023.9,045.2,0.614,762.2,01.16,0.508
2014-04-18 02:08:00,2792E-2,5C000000,-0724,1029,10335,023.9,045.2,0.609,762.1,01.16,0.508
2014-04-18 02:09:00,2790E-2,5C000000,-0724,1029,10314,023.9,045.2,0.613,762.2,01.16,0.508
2014-04-18 02:10:00,2781E-2,5C000000,-0724,1029,10266,023.9,045.2,0.623,762.3,01.16,0.508
2014-04-18 02:11:00,2832E-2,5C000000,-0724,1028,10244,023.9,045.2,0.618,762.3,01.16,0.508
2014-04-18 02:12:00,2781E-2,5C000000,-0724,1028,10245,023.9,045.2,0.618,762.3,01.16,0.508
2014-04-18 02:13:00,2760E-2,5C000000,-0724,1029,10239,023.9,045.2,0.619,762.3,01.16,0.508
2014-04-18 02:14:00,2834E-2,5C000000,-0724,1029,10316,023.9,045.2,0.622,762.3,01.16,0.508
2014-04-18 02:15:00,2829E-2,5C000000,-0724,1029,10110,023.9,045.2,0.618,762.3,01.16,0.508
2014-04-18 02:16:00,2813E-2,5C000000,-0724,1028,10212,023.9,045.2,0.615,762.3,01.16,0.508
2014-04-18 02:17:00,2795E-2,5C000000,-0724,1029,10425,023.9,045.2,0.619,762.3,01.16,0.508
2014-04-18 02:18:00,2784E-2,5C000000,-0724,1028,10248,023.9,045.2,0.624,762.4,01.16,0.508
2014-04-18 02:19:00,2774E-2,5C000000,-0724,1028,10323,023.9,045.2,0.624,762.4,01.16,0.508
2014-04-18 02:20:00,2801E-2,5C000000,-0724,1028,10209,023.9,045.2,0.613,762.3,01.16,0.508
2014-04-18 02:21:00,2821E-2,5C000000,-0724,1028,10308,023.9,045.1,0.613,762.3,01.16,0.508
2014-04-18 02:22:00,2825E-2,5C000000,-0724,1029,10079,024.0,045.2,0.625,762.4,01.16,0.508
2014-04-18 02:23:00,2793E-2,5C000000,-0724,1029,10299,023.9,045.2,0.628,762.5,01.16,0.508
2014-04-18 02:24:00,2814E-2,5C000000,-0724,1028,10078,024.0,045.2,0.613,762.3,01.16,0.508
2014-04-18 02:25:00,2849E-2,5C000000,-0724,1030,10282,024.0,045.2,0.617,762.3,01.16,0.508
2014-04-18 02:26:00,2876E-2,5C000000,-0724,1027,10231,023.9,045.2,0.623,762.4,01.16,0.508
2014-04-18 02:27:00,2841E-2,5C000000,-0724,1027,10234,024.0,045.2,0.619,762.4,01.16,0.508
2014-04-18 02:28:00,2831E-2,5C000000,-0724,1026,10299,024.0,045.2,0.623,762.4,01.16,0.508
2014-04-18 02:29:00,2826E-2,5C000000,-0724,1026,10324,024.0,045.2,0.631,762.5,01.16,0.508
2014-04-18 02:30:00,2833E-2,5C000000,-0724,1026,10077,024.0,045.2,0.629,762.5,01.16,0.508
2014-04-18 02:31:00,2812E-2,5C000000,-0724,1025,10202,024.0,045.2,0.620,762.4,01.16,0.508
2014-04-18 02:32:00,2848E-2,5C000000,-0724,1026,10319,024.0,045.2,0.629,762.5,01.16,0.508
2014-04-18 02:33:00,2850E-2,5C000000,-0724,1027,10328,024.0,045.2,0.632,762.6,01.16,0.508
2014-04-18 02:34:00,2856E-2,5C000000,-0724,1025,10361,024.0,045.2,0.629,762.5,01.16,0.508
2014-04-18 02:35:00,2868E-2,5C000000,-0724,1026,10358,024.0,045.2,0.629,762.5,01.16,0.508
2014-04-18 02:36:00,2860E-2,5C000000,-0724,1025,10238,024.0,045.2,0.626,762.5,01.16,0.508
2014-04-18 02:37:00,2817E-2,5C000000,-0724,1026,10217,024.0,045.1,0.633,762.6,01.16,0.508
2014-04-18 02:38:00,2873E-2,5C000000,-0724,1027,10271,024.0,045.2,0.637,762.7,01.16,0.508
2014-04-18 02:39:00,2901E-2,5C000000,-0724,1026,10178,024.0,045.2,0.632,762.6,01.16,0.508
2014-04-18 02:40:00,2866E-2,5C000000,-0724,1027,10225,024.0,045.2,0.633,762.6,01.16,0.508
2014-04-18 02:41:00,2857E-2,5C000000,-0724,1026,10328,024.0,045.2,0.634,762.7,01.16,0.508
2014-04-18 02:42:00,2821E-2,5C000000,-0724,1027,10234,024.0,045.2,0.633,762.6,01.16,0.508
2014-04-18 02:43:00,2875E-2,5C000000,-0724,1026,10336,024.0,045.2,0.639,762.7,01.16,0.508
2014-04-18 02:44:00,2882E-2,5C000000,-0724,1026,10269,024.0,045.2,0.634,762.7,01.16,0.508
2014-04-18 02:45:00,2865E-2,5C000000,-0724,1026,10226,024.0,045.1,0.642,762.7,01.16,0.508
2014-04-18 02:46:00,2847E-2,5C000000,-0724,1026,10056,024.0,045.2,0.638,762.7,01.16,0.508
2014-04-18 02:47:00,2862E-2,5C000000,-0724,1025,10347,024.0,045.2,0.634,762.7,01.16,0.508
2014-04-18 02:48:00,2852E-2,5C000000,-0724,1026,10131,024.0,045.2,0.636,762.7,01.16,0.508
2014-04-18 02:49:00,2821E-2,5C000000,-0724,1027,10300,024.1,045.2,0.634,762.7,01.16,0.508
2014-04-18 02:50:00,2897E-2,5C000000,-0724,1026,10314,024.1,045.2,0.636,762.7,01.16,0.508
2014-04-18 02:51:00,2892E-2,5C000000,-0724,1026,10224,024.1,045.2,0.638,762.8,01.16,0.508
2014-04-18 02:52:00,2910E-2,5C000000,-0724,1027,10377,024.1,045.2,0.634,762.8,01.16,0.508
2014-04-18 02:53:00,2861E-2,5C000000,-0724,1027,10191,024.1,045.2,0.628,762.7,01.16,0.508
2014-04-18 02:54:00,2904E-2,5C000000,-0724,1026,10003,024.1,045.2,0.630,762.7,01.16,0.508
2014-04-18 02:55:00,2895E-2,5C000000,-0724,1027,10230,024.1,045.2,0.631,762.7,01.16,0.508
2014-04-18 02:56:00,2898E-2,5C000000,-0724,1027,10231,024.1,045.2,0.627,762.7,01.16,0.508
2014-04-18 02:57:00,2932E-2,5C000000,-0724,1027,10296,024.1,045.2,0.634,762.8,01.16,0.508
2014-04-18 02:58:00,2887E-2,5C000000,-0724,1027,10296,024.1,045.2,0.629,762.7,01.16,0.508
2014-04-18 02:59:00,2931E-2,5C000000,-0724,1027,10077,024.1,045.2,0.628,762.7,01.16,0.508
2014-04-18 03:00:00,2867E-2,5C000000,-0724,1027,10356,024.1,045.2,0.630,762.7,01.16,0.508
2014-04-18 03:01:00,2871E-2,5C000000,-0724,1028,10337,024.1,045.2,0.622,762.7,01.16,0.508
2014-04-18 03:02:00,2908E-2,5C000000,-0724,1027,10390,024.1,045.2,0.626,762.7,01.16,0.508
2014-04-18 03:03:00,2889E-2,5C000000,-0724,1027,10279,024.1,045.2,0.630,762.7,01.16,0.508
2014-04-18 03:04:00,2892E-2,5C000000,-0724,1027,10337,024.1,045.2,0.624,762.7,01.16,0.508
2014-04-18 03:05:00,2894E-2,5C000000,-0724,1027,10178,024.1,045.2,0.626,762.7,01.16,0.508
2014-04-18 03:06:00,2892E-2,5C000000,-0724,1027,10229,024.1,045.2,0.630,762.8,01.16,0.508
2014-04-18 03:07:00,2912E-2,5C000000,-0724,1028,10285,024.1,045.2,0.626,762.7,01.16,0.508
2014-04-18 03:08:00,2868E-2,5C000000,-0724,1029,10158,024.1,045.2,0.612,762.7,01.16,0.508
2014-04-18 03:09:00,2871E-2,5C000000,-0724,1030,10227,024.1,045.2,0.609,762.7,01.16,0.508
2014-04-18 03:10:00,2896E-2,5C000000,-0724,1031,10001,024.1,045.2,0.606,762.6,01.16,0.508
2014-04-18 03:11:00,2895E-2,5C000000,-0724,1030,10373,024.1,045.2,0.601,762.6,01.16,0.508
2014-04-18 03:12:00,2897E-2,5C000000,-0724,1033,10028,024.1,045.2,0.601,762.6,01.16,0.508
2014-04-18 03:13:00,2919E-2,5C000000,-0724,1032,10301,024.1,045.2,0.600,762.5,01.16,0.508
2014-04-18 03:14:00,2914E-2,5C000000,-0724,1033,10347,024.1,045.2,0.608,762.6,01.16,0.508
2014-04-18 03:15:00,2957E-2,5C000000,-0724,1033,10230,024.1,045.2,0.606,762.6,01.16,0.508
2014-04-18 03:16:00,2946E-2,5C000000,-0724,1034,10079,024.1,045.2,0.605,762.5,01.16,0.508
2014-04-18 03:17:00,2909E-2,5C000010,-0724,1034,10289,024.1,045.2,0.608,762.6,01.16,0.508
2014-04-18 03:18:00,2981E-2,5C000000,-0724,1034,10277,024.1,045.2,0.609,762.6,01.16,0.508
2014-04-18 03:19:00,2929E-2,5C000000,-0724,1035,10230,024.1,045.2,0.614,762.6,01.16,0.508
2014-04-18 03:20:00,2951E-2,5C000000,-0724,1034,10211,024.2,045.2,0.606,762.6,01.16,0.508
2014-04-18 03:21:00,2956E-2,5C000000,-0724,1035,10144,024.1,045.1,0.604,762.6,01.16,0.508
2014-04-18 03:22:00,2981E-2,5C000000,-0724,1035,10242,024.2,045.2,0.610,762.6,01.16,0.508
2014-04-18 03:23:00,2925E-2,5C000000,-0724,1036,10250,024.2,045.2,0.609,762.6,01.16,0.508
2014-04-18 03:24:00,2938E-2,5C000000,-0724,1035,10211,024.2,045.2,0.611,762.7,01.16,0.508
2014-04-18 03:25:00,2943E-2,5C000000,-0724,1036,10173,024.2,045.2,0.615,762.7,01.16,0.508
2014-04-18 03:26:00,2923E-2,5C000000,-0724,1037,10061,024.2,045.2,0.614,762.7,01.16,0.508
2014-04-18 03:27:00,2985E-2,5C000000,-0724,1036,10091,024.2,045.2,0.616,762.7,01.16,0.508
2014-04-18 03:28:00,2917E-2,5C000000,-0724,1037,10158,024.2,045.2,0.618,762.7,01.16,0.508
2014-04-18 03:29:00,2939E-2,5C000000,-0724,1036,10190,024.1,045.2,0.616,762.7,01.16,0.508
2014-04-18 03:30:00,2926E-2,5C000000,-0724,1035,10141,024.1,045.2,0.619,762.7,01.16,0.508
2014-04-18 03:31:00,2938E-2,5C000000,-0724,1035,10213,024.2,045.2,0.629,762.8,01.16,0.508
2014-04-18 03:32:00,2912E-2,5C000000,-0724,1036,10202,024.2,045.2,0.632,762.9,01.16,0.508
2014-04-18 03:33:00,2948E-2,5C000000,-0724,1036,10140,024.2,045.2,0.630,762.8,01.16,0.508
2014-04-18 03:34:00,2948E-2,5C000000,-0724,1036,10283,024.2,045.2,0.628,762.8,01.16,0.508
2014-04-18 03:35:00,2974E-2,5C000000,-0724,1037,10119,024.2,045.2,0.624,762.8,01.16,0.508
2014-04-18 03:36:00,2933E-2,5C000000,-0724,1036,9966,024.2,045.2,0.632,762.9,01.16,0.508
2014-04-18 03:37:00,2893E-2,5C000000,-0724,1038,10107,024.2,045.2,0.627,762.9,01.16,0.508
2014-04-18 03:38:00,2964E-2,5C000000,-0724,1036,10213,024.2,045.2,0.614,762.7,01.16,0.508
2014-04-18 03:39:00,2945E-2,5C000000,-0724,1036,10270,024.2,045.2,0.619,762.7,01.16,0.508
2014-04-18 03:40:00,2947E-2,5C000000,-0724,1037,10167,024.2,045.2,0.623,762.8,01.16,0.508
2014-04-18 03:41:00,2892E-2,5C000000,-0724,1038,10053,024.2,045.2,0.622,762.8,01.16,0.508
2014-04-18 03:42:00,2930E-2,5C000000,-0724,1037,10211,024.2,045.2,0.621,762.8,01.16,0.508
2014-04-18 03:43:00,2953E-2,5C000000,-0724,1038,10127,024.2,045.2,0.619,762.8,01.16,0.508
2014-04-18 03:44:00,2992E-2,5C000000,-0724,1037,10115,024.2,045.2,0.621,762.8,01.16,0.508
2014-04-18 03:45:00,2936E-2,5C000000,-0724,1037,10054,024.2,045.2,0.617,762.7,01.16,0.508
2014-04-18 03:46:00,2951E-2,5C000010,-0724,1037,9994,024.2,045.2,0.625,762.8,01.16,0.508
2014-04-18 03:47:00,2929E-2,5C000000,-0724,1037,10135,024.2,045.2,0.616,762.7,01.16,0.508
2014-04-18 03:48:00,2949E-2,5C000000,-0724,1037,10173,024.2,045.2,0.611,762.7,01.16,0.508
2014-04-18 03:49:00,2910E-2,5C000000,-0724,1036,10171,024.2,045.2,0.613,762.7,01.16,0.508
2014-04-18 03:50:00,2941E-2,5C000000,-0724,1038,10168,024.2,045.2,0.617,762.8,01.16,0.508
2014-04-18 03:51:00,2972E-2,5C000000,-0724,1038,10115,024.2,045.2,0.611,762.7,01.16,0.508
2014-04-18 03:52:00,2939E-2,5C000000,-0724,1038,9955,024.2,045.2,0.605,762.7,01.16,0.508
2014-04-18 03:53:00,2939E-2,5C000000,-0724,1037,10006,024.3,045.2,0.601,762.6,01.16,0.508
2014-04-18 03:54:00,2958E-2,5C000000,-0724,1038,10157,024.3,045.2,0.602,762.7,01.16,0.508
2014-04-18 03:55:00,2992E-2,5C000000,-0724,1038,10237,024.3,045.1,0.606,762.7,01.16,0.508
2014-04-18 03:56:00,2937E-2,5C000000,-0724,1036,10068,024.3,045.2,0.602,762.7,01.16,0.508
2014-04-18 03:57:00,2949E-2,5C000000,-0724,1039,10188,024.2,045.2,0.606,762.7,01.16,0.508
2014-04-18 03:58:00,2958E-2,5C000000,-0724,1038,10104,024.3,045.2,0.608,762.8,01.16,0.508
2014-04-18 03:59:00,2968E-2,5C000000,-0724,1036,10302,024.3,045.2,0.601,762.7,01.16,0.508
2014-04-18 04:00:00,2937E-2,5C000000,-0724,1037,9996,024.3,045.2,0.601,762.7,01.16,0.508
2014-04-18 04:01:00,2961E-2,5C000000,-0724,1037,10056,024.3,045.2,0.600,762.7,01.16,0.508
2014-04-18 04:02:00,2991E-2,5C000000,-0724,1036,10143,024.3,045.2,0.601,762.7,01.16,0.508
2014-04-18 04:03:00,2954E-2,5C000000,-0724,1037,9908,024.3,045.2,0.599,762.7,01.16,0.508
2014-04-18 04:04:00,2978E-2,5C000000,-0724,1037,10104,024.3,045.2,0.603,762.7,01.16,0.508
2014-04-18 04:05:00,2977E-2,5C000000,-0724,1036,10106,024.3,045.2,0.604,762.7,01.16,0.508
2014-04-18 04:06:00,2951E-2,5C000000,-0724,1038,10140,024.3,045.2,0.603,762.7,01.16,0.508
2014-04-18 04:07:00,2937E-2,5C000000,-0724,1038,10240,024.3,045.2,0.600,762.7,01.16,0.508
2014-04-18 04:08:00,2956E-2,5C000000,-0724,1038,10204,024.3,045.2,0.602,762.7,01.16,0.508
2014-04-18 04:09:00,2996E-2,5C000000,-0724,1037,10124,024.3,045.2,0.602,762.7,01.16,0.508
2014-04-18 04:10:00,2969E-2,5C000000,-0724,1038,10098,024.3,045.2,0.608,762.8,01.16,0.508
2014-04-18 04:11:00,2981E-2,5C000000,-0724,1037,10014,024.3,045.2,0.610,762.8,01.16,0.508
2014-04-18 04:12:00,2981E-2,5C000000,-0724,1039,10013,024.3,045.2,0.603,762.7,01.16,0.508
2014-04-18 04:13:00,2994E-2,5C000000,-0724,1039,10189,024.3,045.2,0.602,762.7,01.16,0.508
2014-04-18 04:14:00,3017E-2,5C000000,-0724,1039,9953,024.3,045.2,0.603,762.7,01.16,0.508
2014-04-18 04:15:00,2978E-2,5C000000,-0724,1040,10214,024.3,045.2,0.601,762.7,01.16,0.508
2014-04-18 04:16:00,3005E-2,5C000000,-0724,1039,10301,024.4,045.2,0.604,762.7,01.16,0.508
2014-04-18 04:17:00,3011E-2,5C000000,-0724,1041,10033,024.3,045.2,0.603,762.7,01.16,0.508
2014-04-18 04:18:00,2961E-2,5C000000,-0724,1041,10005,024.3,045.2,0.609,762.8,01.16,0.508
2014-04-18 04:19:00,3034E-2,5C000000,-0724,1042,10188,024.3,045.2,0.602,762.7,01.16,0.508
2014-04-18 04:20:00,2961E-2,5C000000,-0724,1041,9950,024.3,045.2,0.601,762.7,01.16,0.508